sat.trackr.live / text

‹ back to catalog

STARLINK-3130

NORAD 49437 · 2021-104AF

PAYLOAD ACTIVE UNKNOWN

§ Identity

Operator
Country
US
Launch date
2021-11-13
Launch site
AFETR
Launch vehicle
Mass (kg)
RCS (m²)

Purposes: comms

External: N2YO · Heavens-Above · Gunter

§ Orbital elements

Epoch: 2026-09-12T18:45:26.502336Z

Period
93.85 min
Inclination
53.1614°
Eccentricity
0.0001091
Mean motion
15.34392653 rev/d
Perigee alt
462.0 km
Apogee alt
463.5 km
Semi-major
6,840.9 km
B*
1.5199e-5
RAAN
74.1495°
Arg perigee
83.8050°
Mean anomaly
276.3077°
Rev number
26,736

§ Raw data

STARLINK-31301 49437U 21104AF  26255.78155674  .00000137  00000+0  15199-4 0  99972 49437  53.1614  74.1495 0001091  83.8050 276.3077 15.34392653267361

JSON: /api/v1/satellites/49437 · /tle

For live sub-satellite position, see the globe view (requires WebGL).

§ Visibility from observer

Set your observer location to see the next 7 days of passes ≥ 10°. The values pass through the URL so the page stays shareable.

No JS? Fill the form by hand. The geolocation button needs JavaScript.